Location: Lasqueti Island Observatory
(49.4855°N, 124.2726°W)
Time: 13:15:18
(UTC-07:00)

Daily predictions for brighter satellites

Satellite Brightness Start Highest point End
(mag) Time Altitude Azimuth Time Altitude Azimuth Time Altitude Azimuth
Meteor 2-4 Rocket 4.4 20:39:07 10° NNW 20:44:53 65° W 20:50:42 10° S
Cosmos 1892 Rocket 3.9 20:41:05 10° NNW 20:45:34 73° W 20:50:02 10° S
Cosmos 1315 Rocket 3.6 20:41:49 10° SSW 20:45:47 60° WNW 20:49:51 10° N
Meteor 2-21 Rocket 4.5 20:39:42 10° S 20:45:55 80° E 20:52:07 10° NNE
Cosmos 1025 Rocket 4.3 20:42:05 10° NNW 20:46:17 46° W 20:50:26 10° SSW
Cosmos 1626 Rocket 4.0 20:42:21 10° N 20:46:38 45° ENE 20:50:50 10° SSE
H-2A R/B 3.3 20:44:28 10° ESE 20:47:43 23° ENE 20:51:00 10° N
Meteor 1-29 4.1 20:45:33 10° N 20:48:54 51° WNW 20:52:16 10° SSW
EO 1 Delta rocket 4.0 20:44:41 10° NNE 20:49:16 58° E 20:54:14 10° S
Cosmos 1697 Rocket 4.0 20:46:26 10° SE 20:50:10 18° E 20:53:55 10° ENE
H-2A R/B 2.9 20:47:50 10° S 20:51:44 80° W 20:55:42 10° NNW
ALOS 2.6 20:47:21 10° S 20:52:01 71° WSW 20:56:42 10° NNW
Cosmos 2278 4.0 20:46:55 10° S 20:52:19 46° ESE 20:57:45 10° NE
Cosmos 2123 Rocket 4.0 20:46:18 10° N 20:52:32 84° E 20:58:43 10° S
Cosmos 1461 3.2 20:48:34 10° NW 20:52:41 64° SW 20:56:36 10° SSE
Cosmos 1898 Rocket 4.0 20:48:47 10° NNW 20:53:55 46° ENE 20:59:00 10° SE
ERS-1 Rocket 3.3 20:49:32 10° SE 20:54:23 50° ENE 20:59:15 10° N
Cosmos 1602 Rocket 3.8 20:50:42 10° N 20:55:07 55° ENE 20:59:29 10° SSE
Cosmos 1455 Rocket 3.0 20:51:03 10° S 20:55:20 67° E 20:59:42 10° NNE
NOSS 2-1 (D) 3.4 20:57:10 10° SW 21:01:08 82° SE 21:05:52 10° NE
NOSS 2-1 (C) 3.4 20:58:11 10° SW 21:02:09 81° SE 21:06:55 10° NE
Cosmos 1633 4.3 20:59:07 10° SW 21:02:33 38° WNW 21:06:00 10° N
Meteor 1-12 Rocket 4.5 20:58:40 10° S 21:04:13 52° E 21:09:53 10° NNE
Cosmos 2369 3.8 21:00:10 10° S 21:05:38 52° ESE 21:11:11 10° NE
Cosmos 1939 Rocket 3.2 21:04:09 10° SE 21:08:09 50° ENE 21:12:12 10° N
CZ-2D R/B 4.4 21:05:04 10° S 21:08:49 47° W 21:12:36 10° NNW
Cosmos 1980 Rocket 3.6 21:08:49 10° SE 21:12:22 17° E 21:15:56 10° ENE
Resurs 01 Rocket 4.3 21:10:27 10° SW 21:13:50 21° W 21:17:16 10° NW
ATLAS CENTAUR R/B 3.4 21:09:24 10° WSW 21:14:05 38° NW 21:18:38 10° NNE
Lacrosse 5 1.9 21:09:11 10° NW 21:14:17 77° NNE 21:18:37 14° ESE
Cosmos 2084 3.3 21:11:25 10° NW 21:15:25 82° NE 21:18:58 14° SE
ARGOS 4.3 21:12:23 12° ESE 21:16:18 26° ENE 21:20:43 10° N
NOSS 2-1 (E) 3.7 21:14:09 10° SW 21:18:11 81° NW 21:23:08 10° NE
Cosmos 220 Rocket 4.0 21:14:34 10° NNW 21:18:50 81° WSW 21:23:03 10° SSE
Tiangong 1 2.5 21:16:23 10° SW 21:18:56 23° S 21:20:22 17° SE
USA 186 3.2 21:16:24 10° SSW 21:19:15 34° W 21:21:57 10° NNW
Cosmos 1346 Rocket 4.1 21:15:52 10° NNW 21:19:35 40° W 21:23:18 10° SSW
SPOT 5 3.3 21:20:37 13° SE 21:24:53 46° ENE 21:29:29 10° N
Cosmos 1153 Rocket 4.5 21:19:15 10° S 21:25:23 67° E 21:31:29 10° NNE
RESURS DK-1 2.5 21:27:20 10° NNW 21:31:27 60° NE 21:34:13 20° SE
Cosmos 1500 3.3 21:29:09 10° S 21:32:49 53° E 21:36:31 10° NNE
MetOp-B 4.4 21:30:43 15° SE 21:34:55 52° ENE 21:40:07 10° N
Cosmos 2227 Rocket 3.3 21:29:43 10° NW 21:35:02 42° WSW 21:40:19 10° S
CZ-4 DEB 3.5 21:32:44 10° S 21:35:48 50° W 21:38:53 10° NNW
Cosmos 2263 Rocket 3.9 21:31:59 10° N 21:36:07 21° NE 21:39:56 11° E
PSLV R/B 4.1 21:36:12 24° ESE 21:37:12 30° ENE 21:39:57 10° N
USA 215 3.5 21:32:14 14° ESE 21:37:54 68° NNE 21:44:24 10° WNW
Cosmos 1802 Rocket 4.4 21:33:06 10° SSE 21:39:09 46° E 21:45:15 10° NNE
EP 1 4.1 21:39:41 10° SW 21:42:10 88° NW 21:45:02 10° NE
Cosmos 1340 3.0 21:39:13 10° N 21:42:54 46° ENE 21:44:43 25° SE
Cosmos 2322 Rocket 4.1 21:45:09 11° E 21:45:09 11° E 21:46:03 10° ENE
CZ-4 SHROUD 4.0 21:43:49 28° ESE 21:44:38 33° ENE 21:47:27 10° N
Cosmos 2298 Rocket 4.3 21:39:25 10° NNW 21:44:43 70° WSW 21:49:30 13° SSE
Cosmos 1656 3.6 21:40:23 10° SSW 21:45:54 62° ESE 21:51:23 10° NE
Cosmos 2297 Rocket 3.2 21:45:22 10° NW 21:50:42 44° WSW 21:56:01 10° S
Cosmos 2227 4.4 21:48:09 10° NNW 21:53:53 64° ENE 21:57:19 24° SE
Cosmos 2016 Rocket 4.1 21:52:14 15° SSE 21:57:10 51° E 22:03:09 10° NNE
Cosmos 1726 Rocket 4.1 21:56:28 28° SE 21:58:02 38° E 22:02:08 10° NNE
Envisat 3.4 21:54:39 10° S 21:59:41 61° W 22:04:44 10° NNW
YAOGAN 6 2.6 21:58:34 31° SSE 22:00:12 72° ENE 22:03:56 10° N
Cosmos 1937 Rocket 3.6 21:55:07 10° NNW 22:00:23 76° WSW 22:04:02 20° SSE
H-2A R/B 3.0 22:00:30 24° ESE 22:02:25 31° ENE 22:06:44 10° N
ASTEX 1 3.5 21:57:28 10° NNE 22:02:25 58° E 22:05:29 23° SSE
Terra 3.1 22:02:30 22° E 22:04:04 26° ENE 22:08:01 10° N
Cosmos 1743 2.6 22:03:30 23° S 22:05:50 71° E 22:09:46 10° NNE
Cosmos 1825 Rocket 3.6 22:02:29 10° NNW 22:06:58 83° W 22:09:39 23° S
Cosmos 2173 Rocket 4.0 22:03:35 10° S 22:09:57 83° E 22:16:19 10° N
Cosmos 1975 4.3 22:08:01 10° SW 22:11:52 38° WNW 22:15:45 10° N
Cosmos 2098 Rocket 4.2 22:07:38 21° SSE 22:12:10 51° E 22:17:45 10° NNE
Cosmos 1953 Rocket 3.5 22:11:31 10° N 22:16:00 89° WSW 22:18:06 31° S
Cosmos 990 Rocket 4.1 22:10:45 10° NNW 22:16:02 75° WSW 22:18:54 27° S
USA 245 4.5 22:15:08 24° SSE 22:19:05 86° ENE 22:25:29 10° NNW
Lacrosse 5 rocket 3.5 22:17:37 10° W 22:19:25 13° SW 22:20:53 11° SSW
Cosmos 2100 Rocket 4.1 22:14:17 10° SSW 22:20:35 78° W 22:26:51 10° N
SPOT 1/Viking Rocket 3.5 22:18:31 30° SSE 22:21:12 84° ENE 22:26:27 10° NNW
MetOp-A 4.4 22:17:46 21° S 22:21:25 68° WSW 22:26:47 10° NNW
Cosmos 2061 Rocket 4.0 22:15:31 10° S 22:21:51 83° W 22:28:08 10° N
Tsikada Rocket 4.1 22:15:34 10° N 22:22:00 68° ENE 22:25:17 30° SSE
CZ-4B R/B 3.7 22:17:29 10° NNE 22:22:02 43° E 22:22:56 39° SE
Cosmos 967 Rocket 4.5 22:16:14 10° NW 22:22:38 78° SW 22:25:50 31° SSE
Cosmos 1842 3.1 22:19:30 10° N 22:23:27 77° E 22:24:19 52° SSE
H-2A R/B 3.0 22:20:48 18° SSW 22:23:32 41° W 22:27:29 10° NNW
deb Chang Zheng 4 4.0 22:24:13 10° N 22:28:39 65° WNW 22:33:03 10° SSW
GP-B 4.3 22:27:40 10° NNE 22:31:16 27° ENE 22:31:16 27° ENE
Cosmos 1697 Rocket 2.7 22:27:46 10° SSW 22:33:26 82° WNW 22:39:08 10° NNE
Cosmos 1758 Rocket 3.7 22:30:43 10° NNW 22:35:04 67° W 22:36:40 37° SSW
Cosmos 1707 4.3 22:34:23 10° NNE 22:37:13 23° ENE 22:37:13 23° ENE
SL-16 R/B 3.1 22:39:10 29° E 22:39:10 29° E 22:43:19 10° NE
NOAA 11 4.3 22:38:49 32° S 22:41:25 74° WSW 22:46:55 10° NNW
Cosmos 1125 Rocket 3.4 22:37:07 10° NNW 22:42:21 81° ENE 22:43:49 49° SE
Cosmos 2228 3.0 22:42:45 59° ESE 22:42:51 59° E 22:47:04 10° NNE
IGS 5A 3.9 22:43:02 45° ENE 22:43:12 45° ENE 22:47:11 10° N
Cosmos 1763 Rocket 3.3 22:44:12 30° SSW 22:46:46 81° ESE 22:51:52 10° NNE
Cosmos 1816 Rocket 4.5 22:41:48 10° N 22:48:14 82° E 22:50:46 39° SSE
Meteor 2-5 Rocket 4.1 22:46:52 10° N 22:52:43 54° ENE 22:54:06 44° ESE
Cosmos 1725 Rocket 3.9 22:52:04 30° S 22:55:22 90° SW 23:01:40 10° N
Cosmos 1980 Rocket 2.2 22:50:00 10° SSW 22:55:36 87° WNW 23:01:21 10° NNE
ARGOS 3.6 22:53:54 32° SSW 22:56:13 57° W 23:01:33 10° NNW
Cosmos 2360 Rocket 4.1 22:58:48 14° ENE 22:58:48 14° ENE 23:00:19 10° ENE
Lacrosse 5 3.1 22:52:36 10° WNW 22:56:53 28° SW 22:57:49 26° SSW
Cosmos 1666 2.9 22:57:15 60° WSW 22:57:35 63° WNW 23:01:22 10° N
Meteor 1-15 Rocket 4.2 22:55:14 37° S 22:57:43 84° E 23:03:37 10° NNE
Cosmos 2058 Rocket 3.3 22:59:08 42° SW 23:00:31 68° WNW 23:05:03 10° N
DELTA 2 DEB (DPAF) 4.0 23:01:08 71° S 23:01:36 86° WSW 23:06:08 10° NNW
Cosmos 841 Rocket 3.5 23:05:06 32° SSW 23:07:37 79° WNW 23:12:52 10° NNE
DMSP B5D2-2 4.1 23:02:58 10° NNE 23:08:11 56° E 23:08:20 56° ESE
CZ-4C R/B 3.8 23:16:50 61° WSW 23:17:06 63° WSW 23:21:31 10° NNW
Meteor 2-17 Rocket 4.3 23:16:06 50° S 23:17:50 87° E 23:23:56 10° N
Cosmos 1441 Rocket 4.5 23:14:51 10° N 23:17:40 34° NE 23:17:40 34° NE
Meteor 1-24 Rocket 4.1 23:13:46 10° N 23:19:42 54° ENE 23:20:33 50° ESE
Cosmos 2263 Rocket 2.0 23:15:18 10° NNW 23:20:55 83° ENE 23:21:38 69° SE
USA 215 3.5 23:19:35 45° S 23:21:05 53° SW 23:27:28 10° WNW
CARTOSAT-1 3.7 23:21:55 65° W 23:21:55 65° W 23:26:12 10° NNW
Cosmos 2233 Rocket 3.9 23:21:05 49° S 23:22:54 89° WNW 23:29:12 10° N
Cosmos 405 Rocket 3.5 23:20:20 10° NNW 23:23:26 48° WNW 23:23:26 48° WNW
Landsat 7 4.5 23:25:33 43° SW 23:26:13 46° W 23:30:51 10° NNW
Cosmos 2322 Rocket 2.0 23:26:55 71° SE 23:27:05 71° ESE 23:32:42 10° NNE
Cosmos 540 Rocket 3.5 23:31:09 66° ENE 23:31:09 66° ENE 23:35:50 10° NNE
Cosmos 332 Rocket 4.0 23:32:00 63° NE 23:32:00 63° NE 23:36:15 10° NNE
CZ-4 R/B 4.3 23:27:08 10° N 23:31:46 57° WNW 23:32:50 46° WSW
Genesis I 4.1 23:29:03 10° NW 23:32:09 46° N 23:32:09 46° N
Cosmos 371 Rocket 4.1 23:37:22 41° NE 23:37:22 41° NE 23:40:45 10° NNE
Cosmos 372 Rocket 4.1 23:31:08 10° NNW 23:36:11 60° WSW 23:36:23 59° WSW
Cosmos 2034 Rocket 4.3 23:40:39 47° E 23:40:39 47° E 23:46:32 10° NNE
Terra 2.4 23:41:24 46° WSW 23:41:36 46° W 23:46:12 10° NNW
H-2A R/B 2.8 23:41:08 39° WSW 23:41:45 41° W 23:46:25 10° NNW
Cosmos 1812 Rocket 4.0 23:43:58 60° NNW 23:43:58 60° NNW 23:47:39 10° N
Cosmos 1375 Rocket 4.4 23:46:52 62° SSW 23:48:01 79° SE 23:54:39 10° NE
GEOS 3 Rocket 3.7 23:45:56 10° NE 23:51:03 71° NW 23:52:29 47° WSW
CZ-4B R/B 4.1 23:53:40 15° NE 23:53:40 15° NE 23:54:52 10° NNE
